AKDT,Max TemperatureF,Mean TemperatureF,Min TemperatureF,Max Dew PointF,MeanDew PointF,Min DewpointF,Max Humidity, Mean Humidity, Min Humidity, Max Sea Level PressureIn, Mean Sea Level PressureIn, Min Sea Level PressureIn, Max VisibilityMiles, Mean VisibilityMiles, Min VisibilityMiles, Max Wind SpeedMPH, Mean Wind SpeedMPH, Max Gust SpeedMPH,PrecipitationIn, CloudCover, Events, WindDirDegrees
2012-10-1,42,32,23,29,25,20,96,82,53,30.43,30.19,30.00,10,8,2,9,3,,0.00,5,Snow,273
2012-10-2,41,32,24,24,21,20,88,67,45,30.46,30.40,30.32,10,10,10,9,7,,0.00,5,,122
2012-10-3,48,37,26,26,22,20,78,58,36,30.37,30.31,30.19,10,10,10,9,5,,0.00,5,,124
2012-10-4,52,44,37,33,28,23,67,55,44,30.17,30.12,30.07,10,10,10,9,6,,0.00,6,Rain,131
2012-10-5,57,42,28,39,33,28,96,74,49,30.24,30.16,30.08,10,10,10,6,2,,0.00,5,,347
2012-10-6,46,40,33,44,37,32,100,92,82,30.31,30.18,30.04,10,10,4,8,2,,0.14,5,Fog-Rain,342
2012-10-7,48,40,34,40,37,34,100,88,77,30.32,30.27,30.19,10,10,10,6,3,,0.00,7,Rain,109
2012-10-8,51,44,35,42,39,35,100,85,74,30.22,30.13,30.06,10,10,8,12,5,18,0.00,7,Rain,64
2012-10-9,35,34,32,34,32,27,96,93,78,30.39,30.32,30.23,10,7,1,8,5,,0.19,7,Fog-Rain-Snow,313
2012-10-10,33,26,18,28,20,15,88,69,52,30.36,30.29,30.24,10,10,10,7,3,,0.00,6,Snow,16
2012-10-11,25,16,9,19,15,6,92,85,80,30.30,30.07,29.80,10,10,10,4,0,,0.00,4,Fog,232
2012-10-12,26,24,21,20,15,11,92,71,53,29.77,29.56,29.36,10,10,8,9,2,,0.00,8,Snow,92
2012-10-13,28,24,19,18,16,12,85,73,61,29.47,29.43,29.32,10,10,9,6,1,,0.00,7,Snow,140
2012-10-14,26,18,12,25,19,10,100,91,84,29.44,29.25,29.10,10,6,0,4,0,,0.00,7,Fog-Snow,270
2012-10-15,28,24,19,25,23,15,100,91,81,29.19,29.13,29.04,10,6,2,10,2,20,0.05,8,Fog-Snow,331
2012-10-16,23,20,18,16,15,12,88,80,71,29.69,29.36,29.11,10,7,1,14,9,23,0.06,8,Snow,319
2012-10-17,25,20,14,15,13,11,92,81,65,29.88,29.81,29.67,10,9,2,7,4,,0.00,5,Snow,319
2012-10-18,19,17,15,13,12,10,88,80,68,30.01,29.88,29.71,10,7,1,12,8,21,0.01,8,Snow,313
2012-10-19,21,19,16,17,14,12,88,84,79,30.30,30.11,29.91,10,4,2,9,7,,0.00,7,Snow,312
2012-10-20,21,11,1,12,9,-3,92,81,63,30.64,30.47,30.32,10,10,10,9,5,,0.00,3,,316
2012-10-21,14,4,-7,9,-4,-13,92,84,75,30.72,30.57,30.48,10,5,0,4,0,,0.00,5,Fog,50
2012-10-22,9,0,-9,5,-1,-15,100,88,78,30.60,30.50,30.36,10,5,0,4,0,,0.00,5,Fog-Snow,80
2012-10-23,8,0,-11,4,-6,-17,92,86,75,30.71,30.57,30.37,10,6,0,0,0,,0.00,4,Fog,-1
2012-10-24,10,0,-11,4,-7,-18,87,81,74,30.86,30.77,30.50,10,8,1,0,0,,0.00,4,Fog-Snow,-1
2012-10-25,8,-4,-17,2,-12,-21,83,78,74,30.87,30.80,30.60,10,10,10,5,1,,0.00,1,,98
2012-10-26,7,-4,-16,0,-10,-21,87,79,73,30.72,30.65,30.51,10,10,10,0,0,,0.00,3,,-1
2012-10-27,12,3,-6,4,0,-10,88,80,67,30.49,30.37,30.24,10,10,9,5,0,,0.00,5,Snow,110
2012-10-28,18,6,-6,9,2,-11,88,82,71,30.28,30.25,30.20,10,10,9,4,1,,0.00,5,Snow,155
2012-10-29,15,4,-7,12,7,-12,92,87,78,30.22,30.00,29.81,10,6,1,4,0,,0.03,7,Snow,307
2012-10-30,12,6,1,8,6,-1,92,86,79,30.01,29.94,29.82,9,3,1,6,1,,0.05,8,Snow,333
2012-10-31,12,5,-6,9,5,-11,88,84,79,30.05,29.90,29.74,10,5,2,8,3,,0.01,7,Snow,322